CDT,Max TemperatureF,Mean TemperatureF,Min TemperatureF,Max Dew PointF,MeanDew PointF,Min DewpointF,Max Humidity, Mean Humidity, Min Humidity, Max Sea Level PressureIn, Mean Sea Level PressureIn, Min Sea Level PressureIn, Max VisibilityMiles, Mean VisibilityMiles, Min VisibilityMiles, Max Wind SpeedMPH, Mean Wind SpeedMPH, Max Gust SpeedMPH,PrecipitationIn, CloudCover, Events, WindDirDegrees
2013-5-1,78,60,45,46,43,35,69,53,35,30.28,30.11,29.92,10,10,10,18,8,29,0.00,1,,12
2013-5-2,44,40,35,37,34,30,89,78,65,30.37,30.32,30.27,10,9,2,14,10,21,0.03,8,Rain-Thunderstorm,10
2013-5-3,46,40,35,43,36,31,93,89,85,30.29,30.11,30.02,10,7,2,10,7,16,0.78,8,Rain,28
2013-5-4,72,58,46,56,49,44,100,81,51,30.06,30.02,29.99,10,8,2,10,4,16,0.07,5,Rain-Thunderstorm,53
2013-5-5,78,60,44,52,46,34,100,79,21,30.08,30.05,29.99,10,5,0,8,1,,0.00,0,Fog,48
2013-5-6,80,62,44,49,43,36,93,59,21,30.10,30.04,29.99,10,9,2,8,1,,0.00,1,,33
2013-5-7,82,63,44,48,43,35,93,53,18,30.07,30.02,29.97,10,10,4,8,1,,0.00,1,,249
2013-5-8,84,64,45,55,46,40,93,54,23,30.04,29.99,29.95,10,10,6,8,2,16,0.00,4,Rain,244
2013-5-9,64,58,53,61,57,50,94,90,78,29.96,29.91,29.85,10,6,2,12,3,23,0.40,8,Rain,47
2013-5-10,63,54,46,50,45,42,93,81,56,30.03,29.97,29.91,10,9,2,12,6,20,0.03,6,Rain,32
2013-5-11,57,48,42,48,33,20,93,56,26,30.12,29.98,29.84,10,9,5,22,9,32,0.00,3,Rain,296
2013-5-12,57,44,30,29,23,18,85,46,24,30.19,30.15,30.10,10,9,2,14,4,23,0.00,0,,302
2013-5-13,70,48,28,39,30,21,92,52,18,30.19,30.07,29.85,10,10,6,13,3,18,0.00,1,Rain,207
2013-5-14,95,74,54,62,50,40,72,45,20,29.82,29.66,29.54,10,10,8,12,7,21,0.03,1,Rain-Thunderstorm,212
2013-5-15,82,68,55,49,42,37,72,38,21,29.88,29.81,29.61,10,10,10,13,5,22,0.00,0,,316
2013-5-16,88,66,45,53,46,40,97,54,20,29.94,29.89,29.85,10,10,8,8,2,,0.00,0,,218
2013-5-17,70,60,50,57,50,39,94,77,43,30.06,30.01,29.93,10,9,1,15,6,17,0.76,5,Rain-Thunderstorm,51
2013-5-18,84,68,52,62,55,49,89,66,41,30.05,29.98,29.89,10,10,8,12,3,,0.00,2,,69
2013-5-19,86,72,61,65,61,56,90,63,43,29.89,29.75,29.59,10,9,5,16,4,30,0.00,2,Rain-Thunderstorm,161
2013-5-20,84,74,63,63,60,57,90,69,41,29.75,29.65,29.57,10,9,1,17,8,34,0.62,3,Rain-Thunderstorm,191
2013-5-21,73,65,57,61,57,55,100,80,53,29.69,29.63,29.58,10,8,1,14,4,22,0.07,5,Rain,213
2013-5-22,73,63,55,61,57,54,100,88,55,29.80,29.68,29.63,10,8,0,8,1,,0.38,7,Fog-Rain,276
2013-5-23,68,55,43,55,46,31,94,70,27,30.32,30.06,29.81,10,9,5,16,8,22,0.10,5,Rain,18
2013-5-24,69,52,35,48,38,34,100,79,31,30.47,30.38,30.29,10,6,0,7,1,,0.00,1,Fog,180
2013-5-25,60,54,50,48,43,39,89,67,49,30.38,30.33,30.30,10,10,8,7,2,,0.03,8,Rain,132
2013-5-26,59,51,43,53,46,37,93,80,47,30.29,30.22,30.12,10,8,2,8,3,,0.33,6,Rain,64
2013-5-27,60,56,54,55,52,47,94,88,74,30.11,29.95,29.86,10,5,2,8,5,16,0.02,8,Rain,63
2013-5-28,73,63,53,66,58,52,100,88,73,29.84,29.75,29.69,10,7,1,9,4,,0.26,7,Rain-Thunderstorm,47
2013-5-29,84,72,59,70,62,57,100,88,54,29.90,29.83,29.75,10,4,0,30,3,41,2.19,6,Fog-Rain-Thunderstorm,194
2013-5-30,82,72,63,69,64,59,97,81,58,29.83,29.72,29.64,10,9,2,15,5,26,0.21,4,Rain-Thunderstorm,173
2013-5-31,82,72,64,63,60,56,93,73,42,29.73,29.70,29.65,10,10,10,15,8,29,0.00,4,,193